Location: Warszawa
(52.2500°N, 21.0000°E)
Time: 22:52:45
(UTC+01:00)

ISS - Visible Passes

Search period start: 30 November 2022 00:00
Search period end: 10 December 2022 00:00
Orbit: 415 x 420 km, 51.6° (Epoch: 30 November)

Date Brightness Start Highest point End Pass type
(mag) Time Alt. Az. Time Alt. Az. Time Alt. Az.
30 Nov -3.7 17:04:09 10° W 17:07:30 75° S 17:09:13 26° ESE visible
30 Nov -0.9 18:41:01 10° W 18:42:09 18° W 18:42:09 18° W visible
01 Dec -3.7 16:16:09 10° W 16:19:31 81° S 16:22:52 10° E visible
01 Dec -2.8 17:52:56 10° W 17:56:08 41° SSW 17:56:13 41° SSW visible
02 Dec -3.1 17:04:54 10° W 17:08:11 54° SSW 17:10:22 19° SE visible
02 Dec -0.7 18:42:14 10° W 18:43:19 14° WSW 18:43:19 14° WSW visible
03 Dec -3.4 16:16:53 10° W 16:20:13 66° SSW 16:23:34 10° ESE visible
03 Dec -1.7 17:53:54 10° W 17:56:38 23° SSW 17:57:38 20° S visible
04 Dec -2.1 17:05:44 10° W 17:08:46 32° SSW 17:11:48 10° SE visible
05 Dec -2.5 16:17:40 10° W 16:20:52 42° SSW 16:24:03 10° SE visible
05 Dec -0.7 17:55:40 10° WSW 17:57:00 12° SW 17:58:19 10° SSW visible
06 Dec -0.8 17:06:56 10° W 17:09:13 17° SW 17:11:30 10° S visible
07 Dec -1.2 16:18:37 10° W 16:21:24 24° SSW 16:24:09 10° SSE visible
09 Dec -0.3 16:20:18 10° WSW 16:21:45 12° SW 16:23:11 10° SSW visible
